Weather History for Santa Monica, CA

Change the Weather History Date:

Saturday, January 11, 2014

  Actual Average Record
Temperature  
Mean Temperature 57 °F -  
Max Temperature 66 °F 66 °F 82 °F (1961)
Min Temperature 48 °F 46 °F 30 °F (1949)
Degree Days  
Heating Degree Days 8    
Growing Degree Days 7 (Base 50)    
Moisture  
Dew Point 49 °F    
Average Humidity 77    
Maximum Humidity 94    
Minimum Humidity 47    
Precipitation  
Precipitation 0.00 in - - ()
Sea Level Pressure  
Sea Level Pressure 30.10 in    
Wind  
Wind Speed 2 mph (WSW)    
Max Wind Speed 9 mph    
Max Gust Speed -    
Visibility 8 miles    
Events      
Averages and records for this station are not official NWS values.
T = Trace of Precipitation, MM = Missing Value Source: NWS Daily Summary

Daily Weather History Graph

Daily Weather History Graph

Search for Another Location

Airport:

Trip Planner

Search our weather history database for the weather conditions in past years. The results will help you decide how hot, cold, wet, or windy it might be!

Date:

Astronomy

Jan. 11, 2014 Rise Set
Actual Time 6:59 AM PST 5:04 PM PST
Civil Twilight 6:32 AM PST 5:31 PM PST
Nautical Twilight 6:01 AM PST 6:02 PM PST
Astronomical Twilight 5:31 AM PST 6:32 PM PST
Moon 1:49 PM PST (1/11) 3:11 AM PST (1/11)
Length of Visible Light 10h 59m
Length of Day
10h 04m
Waxing Gibbous, 84% of the Moon is Illuminated
Jan 11
Waxing Gibbous
Jan 15
Full
Jan 23
Last Quarter
Jan 30
New
Feb 6
First Quarter

Hourly Weather History & Observations

Time (PST) Temp. Dew Point Humidity Pressure Visibility Wind Dir Wind Speed Gust Speed Precip Events Conditions
12:51 AM 52.0 °F 46.0 °F 80% 30.11 in 9.0 mi NE 3.5 mph - N/A   Clear
1:51 AM 51.1 °F 45.0 °F 80% 30.12 in 10.0 mi Calm Calm - N/A   Clear
2:51 AM 51.1 °F 44.1 °F 77% 30.12 in 8.0 mi Calm Calm - N/A   Clear
3:51 AM 51.1 °F 44.1 °F 77% 30.12 in 8.0 mi NNW 3.5 mph - N/A   Clear
4:51 AM 48.0 °F 43.0 °F 83% 30.12 in 8.0 mi Calm Calm - N/A   Clear
5:51 AM 48.9 °F 44.1 °F 83% 30.12 in 8.0 mi Calm Calm - N/A   Clear
6:51 AM 48.0 °F 43.0 °F 83% 30.13 in 8.0 mi Calm Calm - N/A   Clear
7:51 AM 51.1 °F 43.0 °F 74% 30.14 in 8.0 mi ENE 4.6 mph - N/A   Clear
8:51 AM 57.9 °F 42.1 °F 56% 30.17 in 10.0 mi Variable 3.5 mph - N/A   Clear
9:51 AM 61.0 °F 46.9 °F 60% 30.18 in 7.0 mi WSW 4.6 mph - N/A   Clear
10:51 AM 64.0 °F 46.0 °F 52% 30.15 in 7.0 mi WSW 4.6 mph - N/A   Clear
11:51 AM 66.0 °F 45.0 °F 47% 30.12 in 7.0 mi WSW 5.8 mph - N/A   Clear
12:51 PM 64.9 °F 51.1 °F 61% 30.09 in 7.0 mi SW 6.9 mph - N/A   Clear
1:51 PM 64.0 °F 48.9 °F 58% 30.08 in 10.0 mi SW 4.6 mph - N/A   Clear
2:51 PM 63.0 °F 52.0 °F 67% 30.06 in 10.0 mi WSW 9.2 mph - N/A   Clear
3:51 PM 62.1 °F 53.1 °F 72% 30.07 in 10.0 mi WSW 9.2 mph - N/A   Clear
4:51 PM 61.0 °F 53.1 °F 75% 30.06 in 10.0 mi SW 4.6 mph - N/A   Clear
5:51 PM 59.0 °F 54.0 °F 83% 30.06 in 10.0 mi WSW 3.5 mph - N/A   Clear
6:51 PM 59.0 °F 54.0 °F 83% 30.06 in 10.0 mi Calm Calm - N/A   Clear
7:26 PM 57.2 °F 55.4 °F 94% 30.07 in 8.0 mi Calm Calm - N/A   Scattered Clouds
7:38 PM 57.2 °F 55.4 °F 94% 30.07 in 8.0 mi Calm Calm - N/A   Mostly Cloudy
7:51 PM 59.0 °F 55.0 °F 87% 30.08 in 8.0 mi Calm Calm - N/A   Overcast
8:51 PM 57.9 °F 55.0 °F 90% 30.08 in 10.0 mi Calm Calm - N/A   Overcast
9:51 PM 57.9 °F 55.0 °F 90% 30.07 in 9.0 mi Calm Calm - N/A   Mostly Cloudy
10:35 PM 57.2 °F 53.6 °F 88% 30.06 in 7.0 mi Calm Calm - N/A   Partly Cloudy
10:51 PM 55.9 °F 53.1 °F 90% 30.06 in 6.0 mi Calm Calm - N/A   Mostly Cloudy
11:51 PM 55.9 °F 53.1 °F 90% 30.06 in 6.0 mi Calm Calm - N/A   Mostly Cloudy